View from above orbital plane
|
View from above satellite
|
Ground track
|
The orbit data is extracted from the following two-line orbital elements,
1 24797U 97020F 21108.20585321 .00000123 00000-0 21540-4 0 9997
2 24797 86.9034 200.2053 0223432 325.7779 91.3672 14.44237384260139
Epoch (UTC): | 18 April 2021 04:56:25 |
Eccentricity: | 0.0223432 |
inclination: | 86.9034° |
perigee height: | 585 km |
apogee height: | 903 km |
right ascension of ascending node: | 200.2053° |
argument of perigee: | 325.7779° |
revolutions per day: | 14.44237384 |
mean anomaly at epoch: | 91.3672° |
orbit number at epoch: | 26013 |
The dashed part of the orbit path shows where the satellite is in the earth's shadow,
|
|